Regional Weather Roundup
Issued by NWS Grand Forks, ND

Home | Current Version | Previous Version | Text Only | Print | Product List | Glossary Off
Versions: 1 2 3 4 5 6 7 8 9 10 11 12 13 14 15 16 17 18 19 20 21 22 23 24 25 26 27 28 29 30 31 32 33 34 35 36 37 38 39 40 41 42 43 44 45 46 47 48 49 50

000
ASUS43 KFGF 061810
RWRFGF
PRAIRIE TO PINES  WEATHER ROUNDUP
NATIONAL WEATHER SERVICE EASTERN NORTH DAKOTA/GRAND FORKS ND
100 PM CDT MON JUL 06 2015

 **SATELLITE DATA USED TO AUGMENT SKY COVER AT AUTOMATED STATIONS**
 *****  WEATHER ACROSS EASTERN NORTH DAKOTA  *****

CITY           SKY/WX    TMP DP  RH WIND       PRES   REMARKS
GRAND FORKS    CLOUDY    61  49  64 N15       30.10S
6HR MIN TEMP:  54; 6HR MAX TEMP:  63;

GRAND FRKS AFB PTSUNNY   62  49  61 N12G20    30.11S
GRAND FRKS NWS   N/A     61 N/A N/A N13         N/A
DEVILS LAKE    MOSUNNY   63  46  55 NW13      30.12F
6HR MIN TEMP:  55; 6HR MAX TEMP:  63;

FARGO          MOSUNNY   66  49  54 N18G26    30.08R
WAHPETON ARPT  MOCLDY    64  46  52 N21G29    30.06S
$$

 ***** WEATHER ACROSS CENTRAL AND WESTERN NORTH DAKOTA  *****

CITY           SKY/WX    TMP DP  RH WIND       PRES   REMARKS
BISMARCK       PTSUNNY   70  51  51 NW15      30.16S HAZE
6HR MIN TEMP:  60; 6HR MAX TEMP:  70;

MINOT          CLOUDY    61  50  67 NW7       30.18R
6HR MIN TEMP:  51; 6HR MAX TEMP:  62;

JAMESTOWN      MOSUNNY   66  51  58 N12       30.12S
6HR MIN TEMP:  59; 6HR MAX TEMP:  66;

MINOT AFB      PTSUNNY   61  54  77 N5        30.17S
GARRISON         N/A     63  52  67 N5        30.16S
WILLISTON      CLOUDY    66  49  54 N12       30.20S HAZE
6HR MIN TEMP:  57; 6HR MAX TEMP:  68;

DICKINSON      PTSUNNY   67  50  54 N12       30.18S
6HR MIN TEMP:  55; 6HR MAX TEMP:  69;

HETTINGER      CLOUDY    66  50  56 NW9       30.21S
6HR MIN TEMP:  57; 6HR MAX TEMP:  68;

$$

 *****  OTHER AIRPORT OBSERVATIONS IN OUR AREA  *****

CITY           SKY/WX    TMP DP  RH WIND       PRES   REMARKS
WALHALLA       FAIR      59  52  77 MISG      30.12S
GRAFTON AIRPOR MOCLDY    63  50  63 N18       30.12R
VALLEY CITY AR MOCLDY    64  50  59 N15G22    30.12R
CANDO          CLOUDY    61  48  63 N16       30.15S
CAVALIER APRT  CLOUDY    59  50  72 N14       30.11F
GWINNER        FAIR      68  52  56 N15       30.10R
ROLLA          MOCLDY    59  45  58 NW14G20   30.16F
 ***** THE ABOVE OBSERVATIONS ARE NON NWS ARE NOT QUALITY
       CONTROLLED AND MAY MIS-REPORT RAIN FOR SNOW...
$$

  *****  WEATHER ACROSS NORTHERN MINNESOTA  *****

CITY           SKY/WX    TMP DP  RH WIND       PRES   REMARKS
FLAG ISLAND    MOSUNNY   57  43  58 N22G28    30.03S
WARROAD        CLOUDY    57  48  72 NW12G22   30.07S
ROSEAU         PTSUNNY   61  50  67 N15       30.07S
HALLOCK        PTSUNNY   63  50  63 N20       30.09F
THF RVR FALLS  CLOUDY    61  45  55 NW21G28   30.07F
6HR MIN TEMP:  55; 6HR MAX TEMP:  63;

BAUDETTE       PTSUNNY   58  46  64 NW18G28   30.02S
6HR MIN TEMP:  55; 6HR MAX TEMP:  59; 6HR PCP: TRACE;

WASKISH        PTSUNNY   61  48  63 NW9G20    30.03S
CROOKSTON      PTSUNNY   61  48  63 N20       30.09S
STEPHEN NDAWN    N/A     61  50  67 N15         N/A
GREENBUSH NDAW   N/A     57  46  67 N12         N/A
$$
  *****  WEATHER ACROSS CENTRAL AND WEST MINNESOTA  *****

CITY           SKY/WX    TMP DP  RH WIND       PRES   REMARKS
FOSSTON        PTSUNNY   61  48  63 N15G22    30.06F
BEMIDJI        MOSUNNY   60  46  60 N12G18    30.03R
PARK RAPIDS    SUNNY     63  47  55 NW18G24   30.01R
6HR MIN TEMP:  60; 6HR MAX TEMP:  67;

ELBOW LAKE     FAIR      67  53  61 NW18G24   30.03R
6HR MIN TEMP:  64; 6HR MAX TEMP:  67;

WADENA         SUNNY     66  52  59 N14       30.00R
DETROIT LAKES  MOSUNNY   63  46  55 N17G29    30.05F
MOORHEAD       MOSUNNY   64  48  55 N22G28    30.08R
FERGUS FALLS   MOSUNNY   64  48  55 N16G23    30.04R
MORRIS MN      MOSUNNY   70  57  64 N20       30.01R HAZE
STAPLES        PTSUNNY   68  54  60 N16G22    29.99S
$$
  *****  WEATHER ELSEWHERE ACROSS MINNESOTA  *****

CITY           SKY/WX    TMP DP  RH WIND       PRES   REMARKS
DULUTH         LGT RAIN  62  58  86 N8        29.93R VSB 3/4
6HR MIN TEMP:  61; 6HR MAX TEMP:  65; 6HR PCP:  0.82;

INTRNTL FALLS  MOSUNNY   60  44  55 NW16G24   29.99R
6HR MIN TEMP:  57; 6HR MAX TEMP:  64;

ELY            CLOUDY    59  52  77 NW6       29.93S HAZE
CLOQUET        LGT RAIN  61  57  88 N6        29.94R
WHEATON        MOSUNNY   64  52  63 N17G23    30.07R
BRAINERD       PTSUNNY   67  55  65 N16       29.98R HAZE
6HR MIN TEMP:  63; 6HR MAX TEMP:  67; 6HR PCP: TRACE;

HIBBING        CLOUDY    63  53  70 N14       29.95R
6HR MIN TEMP:  59; 6HR MAX TEMP:  65; 6HR PCP:  0.07;

ALEXANDRIA     PTSUNNY   69  55  60 N13G25    30.02R HAZE
6HR MIN TEMP:  65; 6HR MAX TEMP:  70; 6HR PCP:  0.01;

SAINT CLOUD    CLOUDY    66  61  84 N9G18     29.94R HAZE
6HR MIN TEMP:  63; 6HR MAX TEMP:  68; 6HR PCP:  0.10;

MINNEAPOLIS    LGT RAIN  65  61  87 N18G30    29.89R FOG
6HR MIN TEMP:  64; 6HR MAX TEMP:  73; 6HR PCP:  0.26;

$$

  *****  WEATHER ACROSS SOUTH DAKOTA  *****

CITY           SKY/WX    TMP DP  RH WIND       PRES   REMARKS
SIOUX FALLS    CLOUDY    70  62  76 N17G26    29.99R HAZE
6HR MIN TEMP:  68; 6HR MAX TEMP:  72; 6HR PCP:  0.09;

BROOKINGS      CLOUDY    68  57  68 N20G28    30.04R
WATERTOWN      CLOUDY    69  57  65 N21       30.05R HAZE
6HR MIN TEMP:  63; 6HR MAX TEMP:  69;

HURON          CLOUDY    72  61  68 N18       30.06R HAZE
6HR MIN TEMP:  62; 6HR MAX TEMP:  73;

SISSETON         N/A     68  53  58 N16G25    30.06R
ABERDEEN       MOSUNNY   70  55  59 N17G24    30.09S HAZE
6HR MIN TEMP:  64; 6HR MAX TEMP:  70;

MITCHELL         N/A     74  63  68 N21G28    30.05R HAZE
PIERRE         SUNNY     74  53  48 N20       30.12R
6HR MIN TEMP:  63; 6HR MAX TEMP:  74;

MOBRIDGE       SUNNY     74  53  48 N13       30.12S
RAPID CITY     CLOUDY    66  54  65 N8        30.24S
6HR MIN TEMP:  59; 6HR MAX TEMP:  67;

$$

  *****  SOME WEATHER IN NEARBY STATES *****

CITY           SKY/WX    TMP DP  RH WIND       PRES   REMARKS
GLASGOW MT     MOSUNNY   70  45  40 W8        30.20F
6HR MIN TEMP:  55; 6HR MAX TEMP:  70;

GREAT FALLS MT MOSUNNY   63  49  60 VRB5      30.20F
6HR MIN TEMP:  46; 6HR MAX TEMP:  64;

CHEYENNE WY    FOG       54  53  97 NE8       30.33R VSB 1
6HR MIN TEMP:  54; 6HR MAX TEMP:  56; 6HR PCP:  0.05;

SCOTTSBLUFF NE CLOUDY    66  53  63 N8        30.26R HAZE
6HR MIN TEMP:  59; 6HR MAX TEMP:  66;

OMAHA NE       LGT RAIN  75  73  93 N6        29.91R FOG
6HR MIN TEMP:  72; 6HR MAX TEMP:  76; 6HR PCP:  0.17;

DES MOINES IA  LGT RAIN  78  72  81 S6        29.85F
6HR MIN TEMP:  74; 6HR MAX TEMP:  78; 6HR PCP:  0.07;

DAVENPORT IA   CLOUDY    78  71  79 S10       29.89F
6HR MIN TEMP:  72; 6HR MAX TEMP:  78; 6HR PCP:  0.02;

CHICAGO IL     CLOUDY    83  70  64 SW15      29.91F
6HR MIN TEMP:  69; 6HR MAX TEMP:  83;

EAU CLAIRE WI  HVY RAIN  70  68  93 W10       29.79R FOG
6HR MIN TEMP:  68; 6HR MAX TEMP:  74; 6HR PCP:  0.56;

LA CROSSE WI   CLOUDY    77  69  76 SW8       29.81S
6HR MIN TEMP:  72; 6HR MAX TEMP:  77; 6HR PCP:  0.02;

$$

  *****  SOME NATIONAL WEATHER *****

CITY           SKY/WX    TMP DP  RH WIND       PRES   REMARKS
LA GUARDIA NY  PTSUNNY   82  62  50 S10       30.15S
6HR MIN TEMP:  72; 6HR MAX TEMP:  83;

RALEIGH NC     MOSUNNY   87  70  56 SW14G20   30.10F HX  92
6HR MIN TEMP:  74; 6HR MAX TEMP:  87;

ATLANTA GA     PTSUNNY   82  68  62 SW3       30.16F
6HR MIN TEMP:  72; 6HR MAX TEMP:  82;

NEW ORLEANS LA CLOUDY    89  74  60 SE6       30.15F HX  98
6HR MIN TEMP:  77; 6HR MAX TEMP:  90;

OKLAHOMA CITY  MOSUNNY   88  75  65 S17       29.95F HX  97
6HR MIN TEMP:  75; 6HR MAX TEMP:  88;

ALBUQUERQUE NM MOSUNNY   81  54  39 W7        30.17F
6HR MIN TEMP:  66; 6HR MAX TEMP:  82;

SALT LAKE CITY PTSUNNY   84  58  40 N7        30.11S
6HR MIN TEMP:  69; 6HR MAX TEMP:  84;

LOS ANGELES CA CLOUDY    65  60  84 SW5       30.07S



USA.gov is the U.S. government's official web portal to all federal, state and local government web resources and services.